User: anonymous   Login
Location: Unspecified
(0.0000°N, 0.0000°E)
Time: 03:09:25
(UTC+01:00)
Language:

Cosmos 1300 - Orbit

View from above orbital plane
View from above orbital plane
View from above satellite
View from above satellite

Ground track
Ground track

The orbit data is extracted from the following two-line orbital elements,

1 12785U 81082A   18052.90468944  .00000391  00000-0  18136-4 0  9998
2 12785  82.5052 186.3588 0002775  96.3943  25.0567 15.17051119989700
Epoch (UTC): 21 February 2018 21:42:45
Eccentricity: 0.0002775
inclination: 82.5052°
perigee height: 513 km
apogee height: 516 km
right ascension of ascending node: 186.3588°
argument of perigee: 96.3943°
revolutions per day: 15.17051119
mean anomaly at epoch: 25.0567°
orbit number at epoch: 98970

The dashed part of the orbit path shows where the satellite is in the earth's shadow,  

DLR